CW7929 Weather Reports


Display with metric or nautical units.
time (UTC)temp
F
wind
direction
speed
MPH
gust
MPH
rain 1hr
in
rain 24hr
in
rain mn
in
humidity
%
barometer
mb
20260507071928 61 163 0.0 0.0 0.00 0.00 0.00 43 1017.2
20260507070432 62 360 0.0 0.0 0.00 0.00 0.00 44 1017.2
20260507063431 62 360 0.0 0.0 0.00 0.00 0.00 45 1017.4
20260507061935 62 360 0.0 0.0 0.00 0.00 0.00 46 1017.4
20260507060424 62 163 0.0 0.0 0.00 0.00 0.00 46 1017.3
20260507054933 62 159 0.0 0.0 0.00 0.00 0.00 45 1017.3
20260507053422 62 159 0.0 0.0 0.00 0.00 0.00 45 1017.4
20260507051926 62 158 0.0 0.0 0.00 0.00 0.00 46 1017.4
20260507044940 63 360 0.0 0.0 0.00 0.00 0.00 45 1017.4
20260507043425 64 360 0.0 0.0 0.00 0.00 0.00 44 1017.4
20260507041918 65 198 0.0 0.0 0.00 0.00 0.00 43 1017.3
20260507040427 65 225 0.0 0.0 0.00 0.00 0.00 43 1017.2
20260507033422 67 226 0.0 0.0 0.00 0.00 0.00 41 1016.9
20260507031929 68 233 0.0 0.0 0.00 0.00 0.00 41 1016.8
20260507030437 69 360 0.0 0.0 0.00 0.00 0.00 40 1016.6
20260507024922 70 196 0.0 0.0 0.00 0.00 0.00 39 1016.5
20260507023427 70 360 0.0 0.0 0.00 0.00 0.00 38 1016.3
20260507021920 71 360 0.0 0.0 0.00 0.00 0.00 37 1016.2
20260507020427 73 360 0.0 0.0 0.00 0.00 0.00 35 1016.1
20260507014936 75 360 0.0 0.0 0.00 0.00 0.00 33 1016.0
20260507013422 76 360 0.0 0.0 0.00 0.00 0.00 31 1016.0
20260507011931 77 259 0.0 0.0 0.00 0.00 0.00 29 1016.1
20260507010439 78 355 0.0 0.0 0.00 0.00 0.00 25 1016.2
20260507004922 79 322 0.0 0.0 0.00 0.00 0.00 25 1016.1
20260507003431 78 350 0.0 0.0 0.00 0.00 0.00 24 1016.1
20260507001919 78 16 1.0 0.0 0.00 0.00 0.00 24 1016.0
20260507000432 78 360 0.0 0.0 0.00 0.00 0.00 24 1016.0
20260506234937 79 24 0.0 0.0 0.00 0.00 0.00 24 1015.9
20260506231935 79 40 0.0 0.0 0.00 0.00 0.00 27 1015.1
20260506230423 79 360 0.0 0.0 0.00 0.00 0.00 28 1015.4
20260506224933 80 355 0.0 0.0 0.00 0.00 0.00 27 1015.5
20260506223422 78 9 0.0 0.0 0.00 0.00 0.00 28 1015.8
20260506221926 79 360 0.0 0.0 0.00 0.00 0.00 28 1015.9
20260506220437 80 77 0.0 0.0 0.00 0.00 0.00 27 1016.2
20260506214924 78 314 1.0 0.0 0.00 0.00 0.00 29 1016.2
20260506211940 77 350 0.0 0.0 0.00 0.00 0.00 30 1016.6
20260506210425 76 33 0.0 0.0 0.00 0.00 0.00 30 1016.7
20260506204935 77 22 0.0 0.0 0.00 0.00 0.00 30 1016.9
20260506203440 76 30 0.0 0.0 0.00 0.00 0.00 31 1016.9
20260506201931 76 21 0.0 0.0 0.00 0.00 0.00 31 1017.1
20260506194925 76 40 1.0 0.0 0.00 0.00 0.00 30 1017.5
20260506193436 74 14 1.0 0.0 0.00 0.00 0.00 31 1017.5
20260506191920 75 355 0.0 0.0 0.00 0.00 0.00 30 1017.5
20260506190432 74 19 0.0 0.0 0.00 0.00 0.00 31 1017.7
20260506184937 74 38 0.0 0.0 0.00 0.00 0.00 30 1017.8
20260506183430 73 31 0.0 0.0 0.00 0.00 0.00 32 1018.0
20260506180423 71 60 1.0 0.0 0.00 0.00 0.00 34 1018.2
20260506174932 70 60 1.0 0.0 0.00 0.00 0.00 35 1018.2
20260506173423 69 13 0.0 0.0 0.00 0.00 0.00 35 1017.2
20260506170418 68 43 0.0 0.0 0.00 0.00 0.00 35 1017.2
20260506164926 67 360 0.0 0.0 0.00 0.00 0.00 35 1017.0
20260506161922 67 22 0.0 0.0 0.00 0.00 0.00 36 1017.0
20260506160431 67 16 0.0 0.0 0.00 0.00 0.00 36 1016.9
20260506154940 65 342 0.0 0.0 0.00 0.00 0.00 38 1016.8
20260506153425 65 337 0.0 0.0 0.00 0.00 0.00 38 1016.9
20260506151934 63 334 0.0 0.0 0.00 0.00 0.00 40 1016.9
20260506150438 61 140 0.0 0.0 0.00 0.00 0.00 43 1016.9
20260506141939 54 140 0.0 0.0 0.00 0.00 0.00 52 1016.7
20260506140430 54 140 0.0 0.0 0.00 0.00 0.00 52 1016.6
20260506134938 52 140 0.0 0.0 0.00 0.00 0.00 54 1016.4
20260506133441 50 146 0.0 0.0 0.00 0.00 0.00 57 1016.2
20260506131929 48 165 0.0 0.0 0.00 0.00 0.00 59 1015.9
20260506130435 46 159 0.0 0.0 0.00 0.00 0.00 61 1015.8
20260506124925 47 165 0.0 0.0 0.00 0.00 0.00 59 1015.7
20260506121927 48 167 0.0 0.0 0.00 0.00 0.00 58 1015.6
20260506120436 48 360 0.0 0.0 0.00 0.00 0.00 58 1015.4
20260506114923 48 360 0.0 0.0 0.00 0.00 0.00 58 1015.3
20260506113432 48 167 0.0 0.0 0.00 0.00 0.00 59 1015.3
20260506111935 48 360 0.0 0.0 0.00 0.00 0.00 59 1015.1
20260506110429 47 167 0.0 0.0 0.00 0.00 0.00 61 1015.1
20260506103424 47 163 0.0 0.0 0.00 0.00 0.00 60 1015.1
20260506101936 47 360 0.0 0.0 0.00 0.00 0.00 59 1014.9
20260506100423 48 163 0.0 0.0 0.00 0.00 0.00 59 1014.8
20260506093425 48 360 0.0 0.0 0.00 0.00 0.00 58 1014.7
20260506091933 49 360 0.0 0.0 0.00 0.00 0.00 58 1014.7
20260506090424 48 360 0.0 0.0 0.00 0.00 0.00 59 1014.8
20260506083434 49 160 0.0 0.0 0.00 0.00 0.00 57 1015.1
20260506080435 49 161 0.0 0.0 0.00 0.00 0.00 57 1015.1
20260506073431 49 360 0.0 0.0 0.00 0.00 0.00 56 1014.9